Location: Banff
(51.1667°N, 115.5667°W)
Time: 15:24:44
(UTC+00:00)

Vanguard 1 - Pass Details

Date: 29 November 2020
Orbit: 649 x 3834 km, 34.3° (Epoch: 16 January)

Event Time Altitude Azimuth Distance (km) Brightness Sun altitude
Exits shadow 12:54:05 - 210° (SSW) 3,062 12.4 -22.3°
Reaches altitude 10° 12:55:20 10° 201° (SSW) 2,810 12.3 -22.1°
Maximum altitude 13:00:14 21° 155° (SSE) 2,636 12.6 -21.4°
Drops below altitude 10° 13:07:16 10° 112° (ESE) 4,220 14.4 -20.3°
Sets 13:12:50 0° 100° (E) 5,865 15.7 -19.4°
